When you browse on this site, cookies collect data to enhance your experience and personalize the content and advertising you see.
Visit our Privacy Policy to learn more. By continuing to use the site, you agree to this use of cookies and data.
  • Em Portugal
  • Lista de países
  • Para 7 dias
  • Temperatura da água
  • Mapa do tempo
  • Widgets de tempo
  • user-avatar
    Iniciar Sessão

    Previsão horária em Golden Sands

    Hoje, 25 Maio, Segunda-feira

    Tempo Temperatura Precipitação Vento Pressão Humidade
    00:00 +14°C° 0 mm 6 m/s 764 mmHg 88%
    01:00 +13°C° 0 mm 6 m/s 764 mmHg 89%
    02:00 +12°C° 0 mm 7 m/s 764 mmHg 88%
    03:00 +11°C° 0 mm 7 m/s 764 mmHg 88%
    04:00 +11°C° 0 mm 6 m/s 764 mmHg 88%
    05:00 +11°C° 0 mm 6 m/s 764 mmHg 88%
    06:00 +13°C° 0 mm 6 m/s 764 mmHg 82%
    07:00 +14°C° 0 mm 5 m/s 765 mmHg 76%
    08:00 +16°C° 0 mm 5 m/s 765 mmHg 68%
    09:00 +16°C° 0.1 mm 5 m/s 765 mmHg 67%
    10:00 +18°C° 0.1 mm 4 m/s 765 mmHg 66%
    11:00 +18°C° 0.1 mm 3 m/s 765 mmHg 65%
    12:00 +19°C° 0.3 mm 2 m/s 764 mmHg 64%
    13:00 +19°C° 0.3 mm 2 m/s 764 mmHg 62%
    14:00 +20°C° 0.3 mm 1 m/s 764 mmHg 61%
    15:00 +19°C° 0.2 mm 2 m/s 763 mmHg 63%
    16:00 +18°C° 0.2 mm 2 m/s 763 mmHg 65%
    17:00 +18°C° 0.2 mm 2 m/s 763 mmHg 67%
    18:00 +17°C° 0.2 mm 3 m/s 763 mmHg 71%
    19:00 +16°C° 0.2 mm 3 m/s 763 mmHg 76%
    20:00 +14°C° 0.2 mm 3 m/s 763 mmHg 80%
    21:00 +14°C° 0.1 mm 4 m/s 763 mmHg 80%
    22:00 +13°C° 0.1 mm 4 m/s 763 mmHg 80%
    23:00 +12°C° 0.1 mm 4 m/s 763 mmHg 79%

    Amanhã, 26 Maio, Terça-feira

    Tempo Temperatura Precipitação Vento Pressão Humidade
    00:00 +12°C° 0 mm 4 m/s 763 mmHg 80%
    01:00 +12°C° 0 mm 4 m/s 763 mmHg 80%
    02:00 +11°C° 0 mm 3 m/s 763 mmHg 80%
    03:00 +11°C° 0 mm 3 m/s 763 mmHg 81%
    04:00 +11°C° 0 mm 3 m/s 763 mmHg 81%
    05:00 +11°C° 0 mm 3 m/s 763 mmHg 81%
    06:00 +12°C° 0 mm 3 m/s 763 mmHg 77%
    07:00 +14°C° 0 mm 3 m/s 763 mmHg 74%
    08:00 +17°C° 0 mm 3 m/s 763 mmHg 71%
    09:00 +17°C° 0.1 mm 3 m/s 763 mmHg 67%
    10:00 +18°C° 0.1 mm 2 m/s 763 mmHg 63%
    11:00 +19°C° 0.1 mm 2 m/s 763 mmHg 58%
    12:00 +19°C° 0.2 mm 2 m/s 763 mmHg 61%
    13:00 +19°C° 0.2 mm 2 m/s 763 mmHg 64%
    14:00 +19°C° 0.2 mm 3 m/s 762 mmHg 66%
    15:00 +19°C° 0.1 mm 2 m/s 762 mmHg 67%
    16:00 +18°C° 0.1 mm 2 m/s 762 mmHg 68%
    17:00 +18°C° 0.1 mm 2 m/s 762 mmHg 68%
    18:00 +18°C° 0 mm 1 m/s 762 mmHg 74%
    19:00 +15°C° 0 mm 1 m/s 762 mmHg 79%
    20:00 +14°C° 0 mm 1 m/s 762 mmHg 84%
    21:00 +14°C° 0 mm 1 m/s 762 mmHg 84%
    22:00 +13°C° 0 mm 1 m/s 762 mmHg 83%
    23:00 +13°C° 0 mm 1 m/s 762 mmHg 83%

    Depois de amanhã, 27 Maio, Quarta-feira

    Tempo Temperatura Precipitação Vento Pressão Humidade
    00:00 +13°C° 0 mm 2 m/s 762 mmHg 83%
    01:00 +12°C° 0 mm 2 m/s 762 mmHg 83%
    02:00 +12°C° 0 mm 2 m/s 762 mmHg 83%
    03:00 +11°C° 0 mm 3 m/s 762 mmHg 84%
    04:00 +11°C° 0 mm 3 m/s 762 mmHg 85%
    05:00 +11°C° 0 mm 4 m/s 762 mmHg 86%
    06:00 +13°C° 0 mm 4 m/s 762 mmHg 82%
    07:00 +14°C° 0 mm 4 m/s 763 mmHg 78%
    08:00 +17°C° 0 mm 4 m/s 763 mmHg 74%
    09:00 +18°C° 0.1 mm 4 m/s 763 mmHg 72%
    10:00 +18°C° 0.1 mm 4 m/s 763 mmHg 71%
    11:00 +19°C° 0.1 mm 4 m/s 763 mmHg 69%
    12:00 +19°C° 0.2 mm 4 m/s 762 mmHg 71%
    13:00 +19°C° 0.2 mm 4 m/s 762 mmHg 73%
    14:00 +18°C° 0.2 mm 4 m/s 762 mmHg 75%
    15:00 +18°C° 0.1 mm 4 m/s 762 mmHg 74%
    16:00 +18°C° 0.1 mm 3 m/s 762 mmHg 72%
    17:00 +18°C° 0.1 mm 2 m/s 762 mmHg 71%
    18:00 +17°C° 0 mm 2 m/s 762 mmHg 76%
    19:00 +15°C° 0 mm 2 m/s 762 mmHg 82%
    20:00 +14°C° 0 mm 1 m/s 762 mmHg 87%
    21:00 +13°C° 0 mm 2 m/s 762 mmHg 87%
    22:00 +13°C° 0 mm 2 m/s 762 mmHg 87%
    23:00 +13°C° 0 mm 2 m/s 762 mmHg 87%

    28 Maio, Quinta-feira

    Tempo Temperatura Precipitação Vento Pressão Humidade
    00:00 +12°C° 0 mm 3 m/s 761 mmHg 88%
    01:00 +12°C° 0 mm 3 m/s 761 mmHg 89%
    02:00 +11°C° 0 mm 4 m/s 761 mmHg 90%
    03:00 +11°C° 0 mm 4 m/s 761 mmHg 91%
    04:00 +10°C° 0 mm 5 m/s 761 mmHg 92%
    05:00 +10°C° 0 mm 6 m/s 761 mmHg 92%
    06:00 +13°C° 0 mm 5 m/s 761 mmHg 88%
    07:00 +14°C° 0 mm 5 m/s 761 mmHg 83%
    08:00 +16°C° 0 mm 5 m/s 761 mmHg 79%
    09:00 +16°C° 0.2 mm 5 m/s 761 mmHg 76%
    10:00 +18°C° 0.2 mm 4 m/s 761 mmHg 72%
    11:00 +19°C° 0.2 mm 3 m/s 761 mmHg 69%
    12:00 +20°C° 0.3 mm 2 m/s 760 mmHg 69%
    13:00 +20°C° 0.3 mm 2 m/s 760 mmHg 68%
    14:00 +21°C° 0.3 mm 1 m/s 760 mmHg 68%
    15:00 +20°C° 0.3 mm 2 m/s 760 mmHg 69%
    16:00 +19°C° 0.3 mm 2 m/s 759 mmHg 70%
    17:00 +19°C° 0.3 mm 2 m/s 759 mmHg 71%
    18:00 +18°C° 0 mm 2 m/s 759 mmHg 75%
    19:00 +17°C° 0 mm 3 m/s 759 mmHg 79%
    20:00 +16°C° 0 mm 3 m/s 759 mmHg 83%
    21:00 +14°C° 0 mm 3 m/s 759 mmHg 83%
    22:00 +14°C° 0 mm 4 m/s 759 mmHg 84%
    23:00 +13°C° 0 mm 4 m/s 759 mmHg 84%

    29 Maio, Sexta-feira

    Tempo Temperatura Precipitação Vento Pressão Humidade
    00:00 +13°C° 0 mm 5 m/s 759 mmHg 85%
    01:00 +13°C° 0 mm 5 m/s 759 mmHg 85%
    02:00 +13°C° 0 mm 5 m/s 759 mmHg 86%
    03:00 +13°C° 0 mm 5 m/s 759 mmHg 86%
    04:00 +12°C° 0 mm 5 m/s 759 mmHg 87%
    05:00 +12°C° 0 mm 5 m/s 759 mmHg 87%
    06:00 +14°C° 0 mm 5 m/s 760 mmHg 83%
    07:00 +15°C° 0 mm 5 m/s 760 mmHg 80%
    08:00 +17°C° 0 mm 4 m/s 760 mmHg 76%
    09:00 +18°C° 0 mm 4 m/s 760 mmHg 71%
    10:00 +19°C° 0 mm 3 m/s 761 mmHg 65%
    11:00 +20°C° 0 mm 3 m/s 761 mmHg 60%
    12:00 +20°C° 0.1 mm 2 m/s 760 mmHg 60%
    13:00 +21°C° 0.1 mm 2 m/s 760 mmHg 60%
    14:00 +21°C° 0.1 mm 2 m/s 760 mmHg 59%
    15:00 +20°C° 0.2 mm 3 m/s 760 mmHg 64%
    16:00 +20°C° 0.2 mm 3 m/s 760 mmHg 69%
    17:00 +19°C° 0.2 mm 4 m/s 760 mmHg 74%
    18:00 +18°C° 0 mm 4 m/s 760 mmHg 77%
    19:00 +17°C° 0 mm 4 m/s 760 mmHg 81%
    20:00 +15°C° 0 mm 4 m/s 761 mmHg 84%
    21:00 +16°C° 0 mm 3 m/s 761 mmHg 82%
    22:00 +16°C° 0 mm 3 m/s 761 mmHg 81%
    23:00 +15°C° 0 mm 2 m/s 761 mmHg 79%

    30 Maio, Sábado

    Tempo Temperatura Precipitação Vento Pressão Humidade
    00:00 +15°C° 0 mm 2 m/s 761 mmHg 77%
    01:00 +15°C° 0 mm 1 m/s 761 mmHg 76%
    02:00 +14°C° 0 mm 1 m/s 761 mmHg 74%
    03:00 +14°C° 0 mm 1 m/s 761 mmHg 75%
    04:00 +14°C° 0 mm 1 m/s 761 mmHg 76%
    05:00 +14°C° 0 mm 2 m/s 761 mmHg 77%
    06:00 +16°C° 0 mm 1 m/s 761 mmHg 74%
    07:00 +18°C° 0 mm 1 m/s 762 mmHg 71%
    08:00 +20°C° 0 mm 1 m/s 762 mmHg 68%
    09:00 +20°C° 0 mm 1 m/s 762 mmHg 67%
    10:00 +20°C° 0 mm 2 m/s 762 mmHg 65%
    11:00 +21°C° 0 mm 2 m/s 762 mmHg 63%
    12:00 +21°C° 0 mm 3 m/s 762 mmHg 65%
    13:00 +21°C° 0 mm 3 m/s 761 mmHg 66%
    14:00 +21°C° 0 mm 4 m/s 761 mmHg 67%
    15:00 +21°C° 0 mm 4 m/s 761 mmHg 69%
    16:00 +20°C° 0 mm 4 m/s 761 mmHg 72%
    17:00 +20°C° 0 mm 4 m/s 761 mmHg 74%
    18:00 +18°C° 0 mm 4 m/s 761 mmHg 79%
    19:00 +17°C° 0 mm 4 m/s 761 mmHg 84%
    20:00 +15°C° 0 mm 4 m/s 761 mmHg 89%
    21:00 +15°C° 0 mm 4 m/s 761 mmHg 89%
    22:00 +15°C° 0 mm 4 m/s 761 mmHg 90%
    23:00 +15°C° 0 mm 4 m/s 761 mmHg 90%
    Mostrar mais